Location: Putah Creek Observatory
(38.7021°N, 122.3865°W)
Time: 01:48:31
(UTC-07:00)

Daily predictions for brighter satellites

Satellite Brightness Start Highest point End
(mag) Time Altitude Azimuth Time Altitude Azimuth Time Altitude Azimuth
Iridium 4 Rocket 3.9 00:03:48 10° N 00:09:10 66° ENE 00:09:10 66° ENE
USA 229 DEB 3.6 00:02:53 10° NW 00:10:02 87° WSW 00:10:39 77° SSE
USA 229 3.6 00:02:59 10° NW 00:10:08 88° WSW 00:10:45 77° SSE
Cosmos 2123 Rocket 4.4 00:11:21 10° N 00:17:17 51° ENE 00:17:17 51° ENE
Cosmos 1486 Rocket 4.5 00:12:50 10° NNW 00:17:20 58° NNE 00:17:20 58° NNE
ALOS 2 4.1 00:22:18 33° NNE 00:22:18 33° NNE 00:25:01 10° N
Cosmos 1934 Rocket 4.0 00:21:23 67° ENE 00:21:23 67° ENE 00:26:52 10° NNE
Cosmos 2369 Rocket 3.5 00:25:03 29° ENE 00:25:03 29° ENE 00:28:15 10° NE
H-2A R/B 4.3 00:20:46 10° NNE 00:23:09 29° NE 00:23:09 29° NE
Terra 4.3 00:34:38 13° W 00:34:38 13° W 00:36:29 10° WNW
Meteor 2-21 Rocket 4.5 00:39:26 75° NW 00:39:26 75° NW 00:45:23 10° N
Lacrosse 5 3.6 00:45:31 25° NE 00:45:31 25° NE 00:47:36 10° NE
Meteor 2-16 Rocket 4.5 00:44:27 76° NNW 00:44:27 76° NNW 00:50:07 10° N
CZ-2C R/B 3.8 00:45:04 10° NNE 00:48:23 33° ENE 00:48:23 33° ENE
CZ-2C R/B 4.3 01:00:52 33° NE 01:00:52 33° NE 01:04:40 10° N
NOSS 3-1 (C) 4.0 00:53:21 10° NNW 01:01:02 80° ENE 01:02:09 68° ESE
Cosmos 1833 Rocket 4.4 00:59:19 10° NW 01:02:23 22° W 01:02:23 22° W
Meteor 2-4 Rocket 4.4 01:02:49 10° NNW 01:06:57 47° NW 01:06:57 47° NW
Cosmos 1943 Rocket 3.4 01:15:38 32° ENE 01:15:38 32° ENE 01:19:08 10° NE
Cosmos 2082 Rocket 4.4 01:13:32 10° WNW 01:15:09 13° W 01:15:09 13° W
Cosmos 2100 Rocket 4.2 01:21:57 63° ENE 01:21:57 63° ENE 01:27:48 10° NNE
Cosmos 2061 Rocket 4.2 01:25:21 63° ENE 01:25:21 63° ENE 01:31:19 10° NNE
Cosmos 1802 Rocket 4.0 01:43:30 73° NE 01:43:30 73° NE 01:49:18 10° N
Cosmos 2016 Rocket 4.1 01:46:08 65° ENE 01:46:08 65° ENE 01:51:46 10° NNE
Cosmos 1459 Rocket 4.0 01:49:33 75° NNW 01:49:33 75° NNW 01:55:12 10° N
Cosmos 1818 4.1 01:52:44 57° NNE 01:52:44 57° NNE 01:57:04 10° NNE
BREEZE-M DEB (TANK) 4.3 01:48:19 10° NW 01:52:28 60° NE 02:08:55 10° ESE
SeaSat 1 3.2 01:53:08 49° NNE 01:53:08 49° NNE 01:57:18 10° NNW
Cosmos 968 Rocket 4.0 01:59:24 10° NNW 02:03:49 56° NNE 02:03:49 56° NNE
Cosmos 2173 Rocket 4.2 02:05:26 62° WNW 02:05:26 62° WNW 02:11:28 10° N
Cosmos 2369 Rocket 3.5 02:06:49 29° WNW 02:07:08 29° WNW 02:12:02 10° N
Cosmos 2219 3.8 02:07:32 10° NNW 02:12:59 48° ENE 02:13:38 46° E
Lacrosse 5 rocket 3.8 02:13:45 16° NNW 02:13:45 16° NNW 02:15:37 10° N
NOSS 3-3 (A) 4.2 02:18:32 56° ESE 02:18:32 56° ESE 02:24:43 10° NE
NOSS 3-3 (C) 4.3 02:18:38 55° ESE 02:18:38 55° ESE 02:24:48 10° NE
Cosmos 1725 Rocket 3.9 02:19:05 82° E 02:19:05 82° E 02:25:18 10° N
NOSS 3-1 (A) 4.5 02:12:11 10° NW 02:18:48 45° W 02:18:48 45° W
Tsikada Rocket 3.9 02:18:59 10° N 02:25:18 80° E 02:25:40 77° SE
Lacrosse 5 3.6 02:24:41 23° NW 02:25:53 26° NNW 02:30:08 10° NNE
CZ-2C R/B 4.2 02:26:01 10° NNW 02:29:54 23° WNW 02:29:54 23° WNW
PSLV R/B 4.5 02:29:04 10° N 02:32:18 49° N 02:32:18 49° N
Cosmos 1777 Rocket 4.2 02:29:02 10° NNW 02:33:56 68° NE 02:33:56 68° NE
ATLAS CENTAUR R/B 4.4 02:40:22 10° ESE 02:40:38 10° ESE 02:40:54 10° ESE
ATLAS 2AS CENTAUR R/B 2.9 02:33:15 10° NW 02:41:21 80° WSW 02:43:17 55° SSE
IRS-P3 4.2 02:36:50 10° NNE 02:42:06 68° E 02:42:06 68° E
BREEZE-M DEB (TANK) 3.7 02:43:05 54° NNE 02:43:05 54° NNE 02:45:50 10° NE
Cosmos 2228 3.7 02:49:49 52° NNE 02:49:49 52° NNE 02:53:10 10° N
IRAS Rocket 4.5 02:47:57 10° NNE 02:53:31 59° ESE 02:54:07 55° SE
Cosmos 1656 Rocket 3.9 02:56:16 56° WNW 02:56:29 57° WNW 03:02:03 10° NNE
Cosmos 1943 Rocket 3.5 02:57:09 26° WNW 02:57:48 27° WNW 03:02:30 10° N
Cosmos 2058 Rocket 3.9 03:02:17 42° NW 03:02:17 42° NW 03:05:36 10° N
NPP 3.5 02:57:29 10° NNE 03:02:54 89° ESE 03:03:14 80° S
Cosmos 44 Rocket 3.8 03:00:48 10° NW 03:04:42 50° WNW 03:04:42 50° WNW
Milstar 3 Cent rocket 4.0 03:08:38 18° SE 03:08:38 18° SE 03:11:40 10° ESE
Cosmos 1812 Rocket 4.1 03:07:09 51° E 03:07:13 51° E 03:11:33 10° NNE
SL-8 R/B 4.0 03:03:21 10° NW 03:08:08 65° NNE 03:12:53 10° ESE
AQUA 3.7 03:03:41 10° NNE 03:08:24 84° ENE 03:08:24 84° ENE
Resurs 1-4 Rocket 3.5 03:11:32 10° NE 03:16:07 30° E 03:18:17 22° SE
ERS-2 2.8 03:15:15 10° NNE 03:18:17 55° NE 03:18:17 55° NE
Cosmos 1570 Rocket 4.4 03:21:11 49° W 03:21:37 50° WNW 03:26:49 10° N
Cosmos 1464 Rocket 4.1 03:19:50 44° SSE 03:21:55 73° E 03:28:13 10° N
Meteor 1-15 Rocket 4.5 03:25:28 49° WSW 03:26:12 52° WNW 03:31:56 10° N
Cosmos 2346 Rocket 4.5 03:21:03 10° NNW 03:27:14 64° W 03:28:34 51° SW
Cosmos 2233 Rocket 4.4 03:28:32 41° WSW 03:29:27 44° WNW 03:35:17 10° N
SL-08 R/B 3.6 03:30:33 50° W 03:30:33 50° W 03:34:42 10° NNW
Cosmos 1898 Rocket 4.4 03:26:17 10° N 03:31:28 48° ENE 03:36:36 10° SE
ISS 0.1 03:31:06 10° N 03:32:05 11° NNE 03:33:03 10° NNE
ADEOS 3.5 03:26:52 10° NNE 03:32:07 88° WNW 03:33:11 58° SSW
CBERS 1 LM4 rocket 4.3 03:31:27 10° N 03:36:12 71° WNW 03:36:49 62° WSW
NOSS 2-1 (D) 3.7 03:36:43 51° SE 03:36:48 51° ESE 03:40:55 10° NE
NOSS 2-1 (C) 3.7 03:38:00 51° SE 03:38:08 51° ESE 03:42:15 10° NE
Meteor 2-5 Rocket 3.9 03:32:27 10° N 03:38:19 77° E 03:41:39 27° SSE
Uosat 12 SS-18 rocket 4.3 03:40:33 10° NNW 03:45:19 84° WSW 03:51:02 10° SSE
Cosmos 1656 4.3 03:43:47 29° SSE 03:46:18 49° ESE 03:51:46 10° NNE
Cosmos 1937 Rocket 4.4 03:44:07 10° N 03:49:07 48° ENE 03:54:08 10° SE
Cosmos 972 Rocket 4.0 03:47:06 10° NNW 03:51:56 57° WSW 03:52:59 47° SSW
Cosmos 2082 3.7 03:46:30 10° NNW 03:52:10 82° ENE 03:57:47 10° SSE
SAR-Lupe-3 4.5 03:52:49 69° NW 03:52:49 69° NW 03:56:02 10° NNW
NOSS 2-1 (E) 3.3 03:52:35 60° S 03:53:09 71° ESE 03:57:30 10° NE
ARIANE 5 R/B 2.4 03:48:55 10° NNE 03:54:04 88° W 03:55:57 41° SSW
Cosmos 1513 Rocket 4.3 03:51:50 37° SSW 03:54:21 78° W 04:00:26 10° N
Cosmos 1697 Rocket 3.6 03:52:12 22° SSE 03:55:21 43° ESE 04:00:40 10° NE
SME Rocket 3.9 03:53:50 25° SSE 03:56:59 86° WSW 04:04:34 10° NNW
Cosmos 1763 Rocket 4.4 03:54:40 22° SSE 03:57:39 42° ESE 04:02:34 10° NNE
Cosmos 44 3.4 03:53:20 10° NW 03:58:18 51° WSW 03:59:09 45° SSW
USA 161 3.0 03:59:39 29° NW 03:59:39 29° NW 04:01:18 10° NNW
Cosmos 1980 Rocket 3.8 03:57:47 12° SSE 04:02:06 29° ESE 04:06:52 10° NE
Spot 4 Rocket 4.3 03:57:49 10° N 04:02:49 51° WNW 04:04:26 37° WSW
CZ-2D R/B 2.2 03:57:49 10° NNE 04:03:19 83° ESE 04:06:09 30° S
NOSS 3-4 (A) 4.5 03:57:00 10° NNW 04:03:52 56° NE 04:11:07 10° SE
Cosmos 2227 Rocket 2.1 03:59:57 10° NNW 04:05:37 73° WSW 04:10:49 12° SSE
Cosmos 1766 3.7 04:04:50 32° SSE 04:06:29 60° E 04:10:24 10° NNE
Cosmos 1891 Rocket 4.5 04:06:32 33° SSW 04:09:14 61° W 04:15:15 10° N
MOS 1-B 4.4 04:04:25 10° NNE 04:10:16 77° ESE 04:14:03 23° S
SL-16 R/B 2.4 04:06:09 17° S 04:11:06 74° WSW 04:17:17 10° NNW
Okean O Rocket 2.9 04:08:02 10° NNE 04:12:05 35° E 04:15:43 12° SSE
Cosmos 405 Rocket 3.1 04:08:34 10° NNW 04:12:29 47° W 04:13:02 44° WSW
IRS-1D 3.5 04:09:20 10° N 04:14:13 61° WNW 04:16:19 33° SW
Cosmos 2298 Rocket 4.0 04:09:34 10° NNW 04:14:47 60° WSW 04:18:18 21° S
Cosmos 2278 4.3 04:15:13 29° WSW 04:17:36 43° WNW 04:23:00 10° N
Cosmos 2369 4.1 04:15:13 30° WSW 04:17:39 49° WNW 04:23:09 10° NNE
UNKNOWN OBJECT B 2.7 04:14:41 10° NNE 04:18:39 86° ESE 04:20:19 33° S
Cosmos 1953 3.6 04:15:41 13° SSE 04:18:56 38° E 04:22:43 10° NNE
ATLAS CENTAUR R/B 1.8 04:16:40 33° SSW 04:19:00 88° ESE 04:24:03 10° NNE
UNK 3.8 04:17:52 26° S 04:20:21 61° W 04:25:00 10° NNW
Cosmos 2034 Rocket 4.2 04:17:29 28° SW 04:20:35 52° W 04:26:39 10° N
Cosmos 1814 Rocket 4.2 04:23:07 29° SW 04:25:43 57° WNW 04:31:01 10° N
Cosmos 2297 Rocket 2.1 04:22:03 10° NNW 04:27:41 68° WSW 04:33:16 10° S
IRS-1C Rocket 4.4 04:23:08 10° NNE 04:28:22 63° ESE 04:33:06 13° S
Meteor 1-22 Rocket 4.4 04:25:39 22° SSW 04:29:35 69° W 04:35:42 10° N
NOSS 7 (D) 4.4 04:28:35 35° SSW 04:29:54 76° ESE 04:33:16 10° NE
EO 1 Del DPAF 3.4 04:28:31 30° SSW 04:30:08 50° W 04:33:56 10° NNW
ATLAS 2AS CENTAUR R/B 4.4 04:27:09 10° WNW 04:30:37 15° W 04:30:37 15° W
Cosmos 1076 Rocket 3.4 04:27:58 10° N 04:32:19 86° W 04:36:25 11° S
EP 2 4.1 04:32:56 54° SW 04:33:25 79° NW 04:36:09 10° NNE
Cosmos 220 Rocket 4.5 04:29:52 10° NW 04:33:53 38° WSW 04:35:43 25° SSW
GEOS 3 Rocket 4.0 04:31:21 10° S 04:36:14 40° WSW 04:41:06 10° NW
Meteor 1-24 Rocket 3.8 04:30:41 10° NNW 04:36:15 59° W 04:42:01 10° S
Nadezhda 4 Rocket 4.1 04:34:20 10° NNW 04:40:22 57° W 04:46:26 10° S
SL-16 R/B 4.3 04:37:38 10° SSE 04:41:51 22° E 04:46:07 10° NE
CZ-2C R/B 3.9 04:37:59 10° SSE 04:42:42 78° ENE 04:47:22 10° N
Cosmos 1805 3.5 04:39:50 13° S 04:43:17 70° E 04:47:12 10° NNE
Cosmos 1378 3.3 04:41:37 10° NNW 04:45:20 55° W 04:48:15 15° S
Cosmos 1766 Rocket 3.5 04:42:10 10° NNW 04:46:32 69° W 04:50:55 10° S
Cosmos 1408 Rocket 3.6 04:42:24 10° NNW 04:46:44 62° W 04:51:04 10° S
Okean-O 4.4 04:45:59 10° NE 04:49:54 30° E 04:53:48 10° SSE
EP 1 4.0 04:50:33 29° SSW 04:51:40 83° ESE 04:54:12 10° NE
Cosmos 1707 4.4 04:49:27 10° NW 04:52:04 17° W 04:52:42 17° W
Cosmos 1441 Rocket 3.3 04:48:48 10° NNW 04:52:43 58° W 04:56:38 10° S
Cosmos-2242 3.0 04:49:34 14° SSW 04:53:20 74° W 04:57:39 10° N
Resurs 1-4 Rocket 3.1 04:51:18 10° N 04:55:54 31° WNW 04:59:21 16° WSW
MOZ.5/SAFIR/RUBIN 5/SL-8 3.7 04:54:22 10° S 04:59:06 82° WSW 05:03:50 10° NNW
Cosmos 990 Rocket 4.2 04:54:24 10° NNW 04:59:29 51° WSW 05:04:33 10° S
CZ-4B R/B 3.2 04:56:09 10° NNE 05:01:45 87° WNW 05:07:12 10° SSW
Meteor 1-21 Rocket 4.4 04:57:16 10° N 05:03:12 89° E 05:09:08 10° S
CZ-4B R/B 2.8 05:00:06 10° NNE 05:04:08 90° NNW 05:07:56 10° SSW
Cosmos 1842 Rocket 3.8 05:01:34 10° S 05:06:01 73° E 05:10:30 10° NNE
ISS -1.6 05:06:12 10° NW 05:09:15 36° NNE 05:12:18 10° ESE
Cosmos 1634 Rocket 4.2 05:04:30 10° SSW 05:10:34 56° W 05:16:45 10° N
Cosmos 2026 Rocket 4.0 05:05:37 10° N 05:11:59 81° W 05:18:15 10° S
CZ-3A R/B 4.1 05:01:19 11° WSW 05:12:51 44° NW 05:17:15 10° NNE
GPS 2-04 Rocket1 2.9 05:10:32 13° WSW 05:13:47 50° S 05:17:22 10° E
Cosmos 332 Rocket 4.1 05:11:37 10° S 05:16:22 69° ESE 05:21:10 10° NNE
Cosmos 1125 Rocket 3.5 05:14:27 10° NNW 05:19:42 84° WSW 05:24:52 10° SSE
ASTRO E2 3.9 05:17:59 11° WSW 05:21:04 25° S 05:24:25 10° SE
